Regional Weather Roundup
Issued by NWS Cleveland, OH

Home | Current Version | Previous Version | Graphics & Text | Print | Product List | Glossary On
Versions: 1 2 3 4 5 6 7 8 9 10 11 12 13 14 15 16 17 18 19 20 21 22 23 24 25 26 27 28 29 30 31 32 33 34 35 36 37 38 39 40 41 42 43 44 45 46 47 48 49 50
000
ASUS41 KCLE 230502
RWRCLE
OHIO REGIONAL WEATHER ROUNDUP
NATIONAL WEATHER SERVICE CLEVELAND, OH
100 AM EDT SAT SEP 23 2017

NOTE: "FAIR" INDICATES FEW OR NO CLOUDS BELOW 12,000 FEET WITH NO
SIGNIFICANT WEATHER AND/OR OBSTRUCTIONS TO VISIBILITY.

OHZ001>008-015>018-024>027-034-035-043-044-230600-
   NORTHWEST OHIO

CITY           SKY/WX    TMP DP  RH WIND       PRES   REMARKS
DEFIANCE       CLEAR     68  64  87 CALM      30.08S
FINDLAY        CLEAR     70  61  73 CALM      30.08S
TOLEDO EXPRESS CLEAR     68  67  96 CALM      30.09R
TOLEDO EXEC    CLEAR     66  63  90 CALM      30.09S
LIMA           CLEAR     71  65  81 SE6       30.09S
$$

OHZ009>014-019>023-028>033-038-089-230600-
   NORTHEAST OHIO

CITY           SKY/WX    TMP DP  RH WIND       PRES   REMARKS
CLE-HOPKINS    PTCLDY    68  61  78 CALM      30.11S
CLE-LAKEFRONT  CLEAR     72  57  59 S3        30.08F
CUY CO. ARPT   NOT AVBL
LORAIN-ELYRIA  CLEAR     60  55  83 CALM      30.10F
ASHTABULA      CLEAR     57  57 100 CALM      30.12S
AKRON-CANTON   MOCLDY    67  58  72 E5        30.11S
WOOSTER        CLEAR     59  58  96 CALM      30.12S
MANSFIELD      CLEAR     68  64  87 SE5       30.11F
YOUNGSTOWN     PTCLDY    62  61  96 CALM      30.12R
$$

OHZ042-051>053-060>062-070>072-077>081-230600-
  SOUTHWEST OHIO

CITY           SKY/WX    TMP DP  RH WIND       PRES   REMARKS
CINC-COVINGTON CLEAR     72  67  84 CALM      30.08R
CINC-LUNKEN    CLEAR     67  67 100 CALM      30.08R FOG
HAMILTON       CLEAR     66  65  96 CALM      30.08R FOG
DAYTON         CLEAR     69  64  84 E3        30.10R
WRIGHT-PAT AFB NOT AVBL
DAYTON GENERAL CLEAR     70  64  81 CALM      30.08R
WILMINGTON     CLEAR     65  64  97 CALM      30.09S
$$

OHZ036-037-039>041-045>050-054>059-063>069-073>076-082>088-230600-
  CENTRAL AND SOUTHEAST OHIO

CITY           SKY/WX    TMP DP  RH WIND       PRES   REMARKS
COLUMBUS       MOCLDY    69  67  93 N6        30.08S
OSU AIRPORT    CLEAR     68  65  90 N3        30.09R
BOLTON FIELD   CLEAR     67  65  94 CALM      30.09S
RICKENBACK AFB NOT AVBL
NEWARK         PTCLDY    64  63  96 CALM      30.09S FOG
MARION         CLEAR     65  60  84 CALM      30.10S
LANCASTER      CLEAR     62  62 100 CALM      30.09S FOG
ZANESVILLE     CLEAR     66  64  93 CALM      30.09S
NEW PHILLY     NOT AVBL
$$




USA.gov is the U.S. government's official web portal to all federal, state and local government web resources and services.